Home   Weather   Wuppertal   Past weeks

Flag for Germany Past Weather in Wuppertal, North Rhine-Westphalia, Germany — Yesterday and Last 2 Weeks

Now
82 °F

Sunny.


Feels Like: 81 °F
Forecast: 65 / 82 °F
Wind: 9 mph from Southeast

Location: Duesseldorf

Current Time: May 27, 2017 at 9:39:47 pm

Latest Report: May 27, 2017 at 8:50 pm


Visibility: 10 mi

Pressure: 29.98 "Hg

Humidity: 35%

Dew Point: 52 °F

Location of WuppertalLocation

Past Weather in Wuppertal — Graph

°F

Wuppertal Temperature Yesterday

Maximum temperature yesterday: 81 °F (at 4:20 pm)
Minimum temperature yesterday: 50 °F (at 5:20 am)
Average temperature yesterday: 67 °F

High & Low Weather Summary for the Past Weeks

 TemperatureHumidityPressure
High88 °F (May 27, 3:20 pm)100% (May 14, 3:20 am)30.42 "Hg (May 14, 3:20 am)
Low46 °F (May 15, 6:50 am)23% (May 15, 7:20 pm)29.59 "Hg (May 12, 7:20 pm)
Average64 °F63%30.10 "Hg
* Reported May 12 7:20 pm — May 27 7:50 pm, Wuppertal. Weather by CustomWeather, © 2017

Note: Actual official high and low records may vary slightly from our data, if they occured in-between our weather recording intervals... More about our weather records

Advertising

Wuppertal Weather History for the Previous 24 Hours

Scroll right to see more
 ConditionsComfort  
Time TempWeatherWind HumidityBarometerVisibility
7:50 pm
Sat, May 27
84 °FPassing clouds.13 mph33%29.98 "HgN/A
7:20 pm86 °FPassing clouds.12 mph29%29.98 "HgN/A
6:50 pm88 °FPassing clouds.12 mph29%29.98 "HgN/A
6:20 pm88 °FPassing clouds.9 mph25%29.98 "HgN/A
5:50 pm88 °FPassing clouds.9 mph27%30.01 "HgN/A
5:20 pm88 °FPassing clouds.13 mph27%29.98 "HgN/A
4:50 pm88 °FPassing clouds.14 mph29%30.01 "HgN/A
4:20 pm88 °FPassing clouds.14 mph27%30.01 "HgN/A
3:50 pm86 °FPassing clouds.12 mph27%30.01 "HgN/A
3:20 pm88 °FPassing clouds.13 mph27%30.01 "HgN/A
2:50 pm86 °FPassing clouds.12 mph27%30.01 "HgN/A
2:20 pm86 °FPassing clouds.14 mph25%30.04 "HgN/A
1:50 pm86 °FPassing clouds.15 mph27%30.04 "HgN/A
1:20 pm84 °FPassing clouds.13 mph31%30.04 "HgN/A
12:50 pm84 °FPassing clouds.15 mph33%30.04 "HgN/A
12:20 pm82 °FPassing clouds.16 mph35%30.04 "HgN/A
11:50 am81 °FPassing clouds.15 mph37%30.07 "HgN/A
11:20 am81 °FPassing clouds.15 mph37%30.07 "HgN/A
10:50 am81 °FSunny.16 mph39%30.07 "Hg10 mi
10:20 am77 °FPassing clouds.14 mph42%30.07 "HgN/A
9:50 am75 °FSunny.17 mph47%30.07 "Hg10 mi
9:20 am73 °FSunny.14 mph50%30.09 "Hg10 mi
8:50 am72 °FSunny.17 mph53%30.09 "Hg10 mi
8:20 am70 °FSunny.16 mph57%30.09 "Hg10 mi
7:50 am70 °FPassing clouds.12 mph57%30.09 "HgN/A
6:50 am66 °FPassing clouds.8 mph64%30.09 "HgN/A
6:20 am61 °FPassing clouds.5 mph77%30.09 "HgN/A
5:50 am61 °FPassing clouds.6 mph72%30.09 "HgN/A
5:20 am61 °FClear.6 mph72%30.07 "Hg10 mi
4:50 am61 °FClear.5 mph72%30.07 "Hg10 mi
4:20 am59 °FClear.6 mph77%30.07 "Hg10 mi
3:50 am63 °FClear.5 mph68%30.07 "Hg10 mi
3:20 am64 °FClear.6 mph64%30.07 "Hg10 mi
2:50 am66 °FClear.9 mph60%30.07 "Hg10 mi
2:20 am64 °FClear.8 mph64%30.07 "Hg10 mi
1:50 am64 °FClear.9 mph68%30.07 "Hg10 mi
1:20 am64 °FClear.9 mph68%30.09 "Hg10 mi
12:50 am63 °FClear.8 mph73%30.09 "Hg10 mi
12:20 am63 °FClear.8 mph73%30.09 "Hg10 mi
11:50 pm
Fri, May 26
64 °FClear.7 mph68%30.09 "Hg10 mi
11:20 pm68 °FClear.8 mph60%30.09 "Hg10 mi
10:50 pm68 °FClear.10 mph60%30.09 "Hg10 mi
10:20 pm70 °FClear.10 mph57%30.09 "Hg10 mi
9:50 pm72 °FClear.10 mph53%30.07 "Hg10 mi
9:20 pm72 °FSunny.10 mph53%30.07 "Hg10 mi
Weather by CustomWeather, © 2017

See weather overviewHow to use our weather pages